Home > Weather > Zaandam > Past weeks

Flag for Netherlands Past Weather in Zaandam, Netherlands — Yesterday and Last 2 Weeks

Now
64 °F

Scattered clouds.


Feels Like: 64 °F
Forecast: 58 / 66 °F
Wind: 16 mph from Southwest

Location: Amsterdam Schiphol Airport

Current Time: Jun 30, 2016 at 5:56:09 PM

Latest Report: Jun 30, 2016 at 5:25 PM


Visibility: N/A

Pressure: 29.83 "Hg

Humidity: 83%

Dew Point: 59 °F

Location of ZaandamLocation

Past Weather in Zaandam — Graph

°F

Zaandam Temperature Yesterday

Maximum temperature yesterday: 68 °F (at 3:55 PM)
Minimum temperature yesterday: 55 °F (at 12:25 AM)
Average temperature yesterday: 60 °F

High & Low Weather Summary for the Past Weeks

 TemperatureHumidityPressure
High81 °F (Jun 23, 4:55 PM)100% (Jun 16, 2:55 AM)30.24 "Hg (Jun 16, 2:55 AM)
Low50 °F (Jun 28, 4:25 AM)56% (Jun 16, 11:25 AM)29.47 "Hg (Jun 15, 4:25 PM)
Average62 °F83%29.94 "Hg
* Reported Jun 15 4:25 PM — Jun 30 4:55 PM, Zaandam, Weather by CustomWeather, © 2016

Note: Actual official high and low records may vary slightly from our data, if they occured in-between our weather recording intervals... More about our weather records

Advertising

Zaandam Weather History for the Previous 24 Hours

Scroll right to see more
 ConditionsComfort  
Time TempWeatherWind HumidityBarometerVisibility
4:55 PM
Thu, Jun 30
66 °FScattered clouds.14 mph83%29.83 "HgN/A
4:25 PM63 °FBroken clouds.14 mph94%29.83 "HgN/A
3:55 PM63 °FDrizzle. Partly sunny.14 mph94%29.83 "Hg2 mi
3:25 PM63 °FBroken clouds.15 mph94%29.83 "HgN/A
2:55 PM63 °FDrizzle. Partly sunny.12 mph94%29.83 "HgN/A
2:25 PM63 °FDrizzle. Partly sunny.15 mph88%29.83 "Hg6 mi
1:55 PM63 °FDrizzle. Broken clouds.12 mph94%29.83 "HgN/A
1:25 PM63 °FDrizzle. More clouds than sun.14 mph88%29.83 "HgN/A
12:55 PM61 °FMostly cloudy.10 mph94%29.83 "HgN/A
12:25 PM61 °FDrizzle. Mostly cloudy.12 mph94%29.83 "Hg3 mi
11:55 AM61 °FDrizzle. Partly sunny.10 mph94%29.83 "HgN/A
11:25 AM61 °FBroken clouds.14 mph88%29.83 "HgN/A
10:55 AM61 °FDrizzle. Partly sunny.12 mph88%29.83 "HgN/A
10:25 AM63 °FDrizzle. Broken clouds.14 mph88%29.83 "HgN/A
9:55 AM61 °FBroken clouds.13 mph94%29.83 "HgN/A
9:25 AM61 °FDrizzle. Broken clouds.10 mph88%29.80 "HgN/A
8:55 AM59 °FDrizzle. Broken clouds.12 mph94%29.80 "HgN/A
8:25 AM59 °FDrizzle. Broken clouds.13 mph94%29.80 "HgN/A
7:55 AM59 °FDrizzle. Partly sunny.10 mph94%29.80 "HgN/A
7:25 AM59 °FScattered clouds.12 mph94%29.80 "HgN/A
6:55 AM59 °FPartly sunny.9 mph94%29.80 "HgN/A
6:25 AM59 °FLight rain. Broken clouds.10 mph94%29.77 "HgN/A
5:55 AM59 °FLight rain. Passing clouds.10 mph94%29.77 "HgN/A
5:25 AM59 °FLight rain. Partly cloudy.12 mph94%29.77 "Hg6 mi
4:55 AM59 °FLight rain. Partly cloudy.10 mph94%29.77 "Hg6 mi
4:25 AM57 °FPartly cloudy.7 mph100%29.77 "Hg2 mi
3:55 AM59 °FPassing clouds.14 mph88%29.77 "Hg3 mi
3:25 AM59 °FPassing clouds.12 mph88%29.77 "Hg4 mi
2:55 AM59 °FLight rain. Passing clouds.12 mph82%29.77 "HgN/A
2:25 AM59 °FPartly cloudy.15 mph82%29.77 "HgN/A
1:55 AM59 °FPassing clouds.14 mph82%29.80 "HgN/A
1:25 AM59 °FPassing clouds.13 mph82%29.80 "HgN/A
12:55 AM59 °FLight rain. Partly cloudy.12 mph82%29.80 "HgN/A
12:25 AM59 °FPassing clouds.13 mph82%29.80 "HgN/A
11:55 PM
Wed, Jun 29
59 °FLight rain. Passing clouds.10 mph88%29.80 "HgN/A
11:25 PM59 °FPassing clouds.12 mph88%29.80 "HgN/A
10:55 PM57 °FLight rain. Passing clouds.10 mph94%29.83 "HgN/A
10:25 PM57 °FLight rain. Passing clouds.10 mph88%29.83 "HgN/A
9:55 PM59 °FLight rain. Passing clouds.13 mph82%29.83 "HgN/A
9:25 PM59 °FLight rain. Passing clouds.13 mph82%29.83 "HgN/A
8:55 PM59 °FLight rain. Passing clouds.15 mph82%29.83 "HgN/A
8:25 PM59 °FLight rain. Passing clouds.15 mph82%29.83 "HgN/A
7:55 PM61 °FPassing clouds.15 mph88%29.83 "HgN/A
7:25 PM61 °FScattered clouds.15 mph83%29.83 "HgN/A
6:55 PM63 °FLight rain. Passing clouds.17 mph77%29.83 "HgN/A
6:25 PM64 °FPassing clouds.20 mph73%29.83 "HgN/A
5:55 PM66 °FPassing clouds.16 mph68%29.83 "HgN/A
5:25 PM68 °FPassing clouds.16 mph64%29.83 "HgN/A
Weather by CustomWeather, © 2016

See weather overviewHow to use our weather pages